Location: Tel Aviv
(32.0670°N, 34.7670°E)
Time: 09:30:07
(UTC+02:00)

Transit 2A Rocket - Pass Details

Date: 14 December 2023
Orbit: 590 x 905 km, 66.7° (Epoch: 01 March)

Event Time Altitude Azimuth Distance (km) Brightness Sun altitude
Rises 17:07:42 0° 177° (S) 3,115 8.4 -6.6°
Reaches altitude 10° 17:10:28 10° 164° (SSE) 2,141 7.4 -7.1°
Maximum altitude 17:14:23 25° 110° (ESE) 1,326 5.9 -7.9°
Enters shadow 17:18:02 10° 55° (NE) 2,001 6.5 -8.6°
